SCP
0 0 0 0 0 0 0 0 0 0 0 0 0 0 0 0 0 0 0 0 0 0 0 0 0 0 0 0 0 0 0 0 0 0 0 0 0 0 0 0 0 0 0 0
0 0 0 0 0 0 0 0 0 0 0 0 0 0 0 0 0 0 0 0 0 0 0 0 0 0 0 0 0 0 0 0 0 0 0 0 0 0 0 0 0 0 0 0
0 0 0 0 0 0 0 0 0 0 0 0 0 -0 -0 0 0 0 0 0 0 0 0 0 0 0 0 0 0 0 0 0 0 0 0 0 0 0 0 0 0 0 0 0
0 0 0 0 0 0 0 0 0 0 0 0 0 -0 -0 0 0 0 0 0 0 0 0 0 0 0 0 0 0 0 0 0 0 0 0 0 0 0 0 0 0 0 0 0
0 0 0 0 0 0 0 0 0 0 0 0 0 0 -0 -0 0 0 0 0 0 0 0 0 0 0 0 0 0 0 0 0 0 0 0 0 0 0 0 0 0 0 0 0
0 0 0 0 0 0 0 0 0 0 0 0 0 0 -0 0 -0 -0 0 0 0 0 0 0 0 0 0 0 0 0 0 0 0 0 0 0 0 0 0 0 0 0 0 0
0 0 0 0 0 0 0 0 0 0 0 0 0 0 0 0 0 -0 0 0 0 0 0 0 0 0 0 0 0 0 0 0 0 0 0 0 0 0 0 0 0 0 0 0
0 0 0 0 0 0 0 0 0 0 0 0 0 0 0 0 0 0 -0 0 0 0 0 0 0 0 0 0 0 0 0 0 0 0 0 0 0 0 0 0 0 0 0 0
0 0 0 0 0 0 0 0 0 0 0 0 0 0 0 0 0 0 0 0 0 0 -0 -0 0 0 0 0 0 0 0 0 0 0 0 0 0 0 0 0 0 0 0 0
0 0 0 0 0 0 0 0 0 0 0 0 0 0 0 0 0 0 0 0 0 0 0 0 0 0 0 0 0 0 0 0 0 0 0 0 0 0 0 0 0 0 0 0
0 0 0 0 0 0 0 0 0 0 0 0 0 0 0 0 0 0 0 0 0 0 0 0 0 0 0 0 0 0 0 0 0 0 0 0 0 0 0 0 0 0 0 0
0 0 0 0 0 0 0 0 0 0 0 0 0 0 0 0 0 0 0 0 -0 -0 -0 0 0 0 -0 -0 0 0 0 0 0 0 0 0 0 0 0 0 0 0 0 0
0 0 0 0 0 0 0 0 0 0 0 0 0 0 0 0 0 0 0 0 -0 -0 -0 -0 -0 -0 -0 -0 -0 0 0 0 0 0 0 0 0 0 0 0 0 0 0 0
0 0 0 0 0 0 0 0 0 0 0 0 0 0 -0 0 0 -0 -0 -0 -0 -0 -0 -0 -0 -0 -0 -0 0 0 0 0 0 0 0 0 0 0 0 0 0 0 0 0
0 0 0 0 0 0 0 0 0 0 0 0 0 0 0 0 0 -0 -0 -0 -0 -0 -0 -0 -0 -0 -0 0 0 0 0 0 0 0 0 0 0 0 0 0 0 0 0 0
0 0 0 0 0 0 0 0 0 0 0 0 0 0 -0 -0 -0 -0 0 0 -0 0 0 0 0 0 0 0 0 0 0 0 0 0 0 0 0 0 0 0 0 0 0 0
0 0 0 0 0 0 0 0 0 0 0 0 0 0 0 0 0 0 0 -0 -0 0 0 0 0 0 0 0 0 0 0 0 0 0 0 0 0 0 0 0 0 0 0 0
0 0 0 0 0 0 0 0 0 0 0 0 0 0 0 0 -0 0 -0 -0 0 0 0 0 0 0 0 0 0 0 0 0 0 0 0 0 0 0 0 0 0 0 0 0
0 0 0 0 0 0 0 0 0 0 0 0 0 0 0 0 0 -0 -0 -0 -0 -0 0 0 0 0 0 0 0 0 0 0 0 0 0 0 0 0 0 0 0 0 0 0
0 0 0 0 0 0 0 0 0 0 0 0 0 0 0 0 0 0 -0 -0 -0 -0 -0 0 0 0 0 0 0 0 0 0 0 0 0 0 0 0 0 0 0 0 0 0
0 0 0 0 0 0 0 0 0 0 0 0 0 0 0 0 0 0 -0 -0 -0 -0 -0 -0 0 0 0 0 0 0 0 0 0 0 0 0 0 0 0 0 0 0 0 0
0 0 0 0 0 0 0 0 0 0 0 0 0 0 0 0 0 -0 -0 -0 -0 -0 -0 0 -0 0 0 0 0 0 0 0 0 0 0 0 0 0 0 0 0 0 0 0
0 0 0 0 0 0 0 0 0 0 0 0 0 0 0 0 0 0 0 0 -0 -0 -0 0 -0 0 0 0 0 0 0 0 0 0 0 0 0 0 0 0 0 0 0 0
0 0 0 0 0 0 0 0 0 0 0 0 0 0 0 0 0 0 0 0 0 0 -0 -0 -0 -0 -0 0 0 0 0 0 0 0 0 0 0 0 0 0 0 0 0 0
0 0 0 0 0 0 0 0 0 0 0 0 0 0 0 0 0 0 0 0 0 0 0 -0 -0 -0 -0 0 0 0 0 0 0 0 0 0 0 0 0 0 0 0 0 0
0 0 0 0 0 0 0 0 0 0 0 0 0 0 0 0 0 0 0 0 0 0 0 -0 -0 -0 -0 -0 0 0 0 0 0 0 0 0 0 0 0 0 0 0 0 0
Wind_Speed_500mb
15 8 28 18 17 7 9 8 9 4 11 7 13 19 26 51 38 46 54 58 52 67 63 58 59 63 64 62 65 67 68 72 75 76 75 75 77 72 69 66 61 57 55 52
9 25 11 13 11 10 5 6 7 7 5 1 11 27 18 45 38 52 61 61 68 73 74 65 72 73 72 73 70 70 72 76 76 83 83 81 80 78 74 70 67 65 63 58
17 5 22 12 9 11 7 10 6 1 12 5 11 34 18 23 59 54 69 76 78 79 84 84 83 80 75 80 83 81 76 79 79 84 88 88 87 85 84 83 79 76 69 67
15 10 16 8 13 13 17 14 11 8 7 11 3 22 16 7 19 19 47 59 70 79 87 94 97 91 93 98 86 81 89 87 84 86 95 98 97 98 95 91 84 82 77 73
13 17 18 20 12 11 9 10 13 9 6 3 10 12 11 6 13 21 26 54 67 74 78 84 85 95 102 96 101 101 99 93 97 99 100 101 102 100 98 95 91 84 83 81
8 7 15 17 7 18 13 10 8 4 7 15 19 17 40 22 15 15 29 52 58 67 68 69 74 76 88 91 98 105 107 111 103 108 108 109 105 105 107 103 98 90 82 82
3 6 5 11 12 6 11 14 1 5 11 16 8 18 54 11 19 13 27 49 64 65 69 70 64 64 66 75 86 95 103 115 118 112 111 113 109 109 107 107 100 95 85 82
20 10 17 9 9 9 19 12 9 13 9 6 3 16 28 6 22 45 54 65 61 60 60 60 59 67 75 83 77 81 92 102 113 119 117 109 109 113 106 107 106 97 88 81
13 11 6 2 9 22 9 20 9 4 3 1 9 17 34 32 29 40 51 59 75 83 83 74 70 69 60 61 74 80 79 88 99 113 118 121 114 113 110 105 107 98 88 80
10 6 2 6 7 3 12 11 5 4 2 6 12 13 28 2 1 11 18 38 54 52 55 54 50 52 55 58 64 69 81 91 88 96 110 116 117 113 109 107 102 96 88 81
11 9 5 10 14 20 9 17 5 7 9 8 6 13 29 25 19 20 31 39 47 62 64 52 53 41 68 79 79 68 73 84 93 90 97 110 116 113 111 107 98 94 88 81
5 10 7 11 7 7 16 20 14 9 8 8 4 25 14 12 16 3 24 65 67 77 74 58 76 92 83 78 86 77 71 74 83 91 93 104 110 114 114 106 98 94 87 83
17 8 6 10 11 1 14 15 21 24 4 21 8 21 17 14 13 28 47 66 81 92 95 103 102 82 90 95 106 99 87 75 76 83 94 98 105 112 111 107 100 95 87 82
46 7 15 20 10 8 18 17 29 30 17 42 32 62 80 43 29 35 49 65 80 92 95 114 99 92 100 116 111 97 93 82 71 75 85 98 101 107 107 103 105 96 88 83
14 12 6 1 7 6 8 26 26 40 52 16 34 21 63 21 18 47 70 80 78 83 87 95 112 115 120 115 106 98 89 74 69 70 81 93 103 98 103 103 103 100 91 82
4 7 16 21 14 12 11 24 25 31 25 31 27 51 80 84 54 58 62 57 62 77 90 88 103 104 112 112 117 107 95 90 77 71 77 85 95 103 100 102 99 96 86 80
13 11 7 9 5 7 16 46 39 24 22 31 34 65 52 46 36 58 52 55 69 83 84 90 96 101 100 105 109 101 90 87 78 72 70 78 83 95 94 93 90 86 80 78
15 11 5 5 5 6 12 8 24 46 34 48 53 54 47 49 82 49 58 71 72 77 78 87 93 101 103 102 101 93 86 82 73 67 67 68 77 81 86 81 85 84 82 81
7 11 7 11 9 17 27 17 19 19 36 47 48 57 65 53 67 35 23 36 64 69 82 90 94 97 97 101 93 90 85 80 70 65 59 58 67 75 75 79 79 81 81 80
6 6 8 6 10 18 9 6 17 14 35 29 53 46 30 29 21 14 32 84 88 97 89 95 96 96 100 92 85 86 74 73 73 62 53 46 56 69 69 75 75 80 77 73
9 2 10 7 7 20 22 14 26 12 11 12 41 42 38 13 26 67 73 86 89 83 96 100 105 101 94 81 80 88 71 68 70 57 48 52 51 58 60 64 66 71 76 78
23 20 10 8 5 25 42 14 20 16 23 24 20 21 24 51 73 85 98 99 86 89 108 109 112 107 97 94 80 80 83 76 74 59 51 58 59 58 59 66 69 75 74 68
8 16 14 26 20 6 52 21 70 50 48 46 48 47 54 74 87 87 88 98 84 100 109 108 115 110 103 92 81 73 72 75 71 61 64 63 65 58 61 71 73 75 69 68
10 17 10 6 32 26 33 51 60 50 60 68 55 67 80 93 96 107 98 85 93 103 102 104 111 111 111 99 92 72 62 70 65 64 62 60 68 60 59 65 66 69 71 68
14 24 16 26 35 14 54 71 84 79 75 81 86 92 98 95 103 93 96 102 108 94 98 98 108 114 111 101 94 79 55 70 66 69 66 62 68 68 65 66 63 60 58 60
22 19 15 20 54 35 66 43 49 68 77 84 89 91 87 84 92 98 114 112 97 89 100 112 113 113 113 101 89 81 54 71 73 77 69 73 70 73 70 73 68 53 45 48
Wind_Direction_500mb
174 188 204 181 196 129 137 166 201 225 255 250 232 242 244 264 259 264 266 262 265 258 252 252 248 248 246 245 242 241 240 238 236 236 235 236 237 237 236 235 234 234 235 235
147 224 182 159 177 168 153 207 212 252 323 223 295 275 232 263 256 248 256 261 262 263 265 258 251 245 246 246 244 242 242 242 239 237 239 240 241 241 241 241 239 237 236 236
187 188 142 133 150 174 197 230 165 311 332 265 313 285 228 237 248 244 250 258 262 262 263 262 257 253 250 245 244 244 243 245 243 241 240 239 242 243 242 240 240 238 238 239
210 167 148 153 198 156 236 182 196 256 320 259 1 283 242 231 269 234 243 251 258 259 259 261 261 258 252 250 251 251 248 246 245 242 240 240 240 242 243 242 243 241 240 240
189 158 154 201 184 154 222 149 167 178 210 347 237 280 281 186 264 272 243 254 257 259 264 267 267 262 258 255 252 251 249 250 246 243 241 242 241 245 247 248 247 245 243 242
157 149 156 174 133 169 150 104 62 141 166 243 220 206 269 245 237 241 240 247 257 269 273 276 278 275 269 265 260 254 250 248 248 246 243 241 242 242 242 244 246 246 244 243
112 139 159 150 115 132 197 132 122 225 210 242 209 184 253 295 282 236 268 278 277 277 276 278 277 277 277 270 266 261 254 248 246 245 245 243 242 243 244 246 245 246 245 243
165 199 168 163 170 171 191 189 174 202 205 271 46 226 250 220 251 256 261 269 274 279 291 296 278 284 290 284 276 269 261 254 248 247 245 247 245 243 243 245 246 245 245 245
150 231 43 151 154 163 183 215 176 355 298 327 220 281 290 264 250 257 262 268 278 284 298 285 298 310 309 296 284 276 268 261 255 251 247 247 247 244 241 243 246 244 244 245
180 122 135 170 98 105 148 155 115 202 221 241 255 255 248 160 65 304 273 264 285 302 309 303 302 324 335 324 302 289 276 266 263 256 249 248 246 245 242 240 243 243 242 243
129 93 121 120 202 184 171 213 186 138 181 207 275 253 241 249 225 239 267 284 315 318 327 306 311 327 332 333 333 313 286 275 264 258 252 248 247 245 241 240 242 241 240 240
195 114 152 183 314 232 210 216 173 168 221 240 260 270 200 251 240 165 332 325 320 320 319 320 314 316 324 335 334 324 306 286 272 263 258 252 248 246 242 240 239 238 237 238
158 170 73 3 346 306 210 199 212 239 346 242 156 260 102 81 97 352 334 326 324 323 319 316 317 319 319 321 326 320 318 300 279 267 260 253 249 245 242 242 238 236 236 235
162 146 187 206 185 151 199 194 204 198 211 241 226 251 274 259 296 334 338 322 310 304 305 304 305 308 313 312 316 323 317 307 290 267 261 255 249 245 243 244 239 235 234 232
148 186 137 97 151 135 179 203 202 210 228 223 243 264 268 278 326 306 293 287 287 289 292 294 300 301 303 305 311 319 319 308 295 276 261 255 251 244 242 242 238 235 233 230
129 144 168 210 215 196 225 224 213 226 238 258 279 269 260 286 284 273 274 273 276 284 290 293 296 297 300 302 303 306 312 311 298 280 266 256 251 244 238 237 235 235 232 225
139 133 114 225 335 105 297 233 217 208 201 211 228 244 269 280 272 268 289 307 300 293 297 299 299 298 296 295 298 304 304 307 294 281 271 258 253 250 242 238 235 234 230 224
136 111 93 166 33 217 233 351 202 212 219 218 238 258 265 265 271 301 307 294 291 297 308 312 312 311 306 302 301 303 302 301 292 276 273 260 249 246 244 238 235 228 224 222
124 133 120 154 199 295 284 195 189 174 242 223 230 248 257 274 297 308 309 327 316 310 307 312 317 319 315 303 303 301 295 292 288 275 268 268 249 240 238 235 228 227 223 217
121 65 116 139 158 215 251 226 165 105 265 203 212 240 260 273 282 272 300 319 320 322 322 318 316 317 321 315 302 299 292 284 279 276 266 260 250 239 229 228 223 220 217 217
162 192 169 192 221 278 220 177 154 165 233 163 194 219 243 221 251 289 305 314 318 319 323 322 320 314 319 322 308 294 292 281 286 268 262 252 237 234 228 220 216 211 206 205
176 173 190 170 194 269 175 173 181 214 155 189 212 220 263 289 297 304 308 311 316 319 321 321 321 314 313 315 311 297 284 285 279 255 244 240 233 227 220 211 204 201 200 203
221 185 181 189 214 215 188 209 215 238 249 248 259 263 289 298 297 299 299 305 308 316 315 317 319 312 307 310 315 296 288 279 267 240 237 228 225 219 217 213 205 202 202 204
238 188 226 102 245 233 233 231 238 239 248 252 259 283 291 291 292 297 297 298 306 311 310 315 314 309 304 305 307 302 281 276 257 236 234 224 223 209 202 206 205 202 196 201
187 159 211 251 269 313 254 239 248 253 260 274 279 280 280 283 287 290 294 298 304 302 306 311 310 305 301 302 300 299 266 263 248 231 225 216 215 211 201 202 205 205 205 200
182 201 195 236 251 228 262 270 268 266 270 275 275 278 280 282 283 287 290 291 295 297 303 307 305 301 298 297 296 290 256 248 241 228 219 213 207 209 200 197 189 190 198 192
Wind_Speed_850mb
15 8 28 18 17 7 9 8 9 4 11 7 13 19 26 51 38 46 54 58 52 67 63 58 59 63 64 62 65 67 68 72 75 76 75 75 77 72 69 66 61 57 55 52
9 25 11 13 11 10 5 6 7 7 5 1 11 27 18 45 38 52 61 61 68 73 74 65 72 73 72 73 70 70 72 76 76 83 83 81 80 78 74 70 67 65 63 58
17 5 22 12 9 11 7 10 6 1 12 5 11 34 18 23 59 54 69 76 78 79 84 84 83 80 75 80 83 81 76 79 79 84 88 88 87 85 84 83 79 76 69 67
15 10 16 8 13 13 17 14 11 8 7 11 3 22 16 7 19 19 47 59 70 79 87 94 97 91 93 98 86 81 89 87 84 86 95 98 97 98 95 91 84 82 77 73
13 17 18 20 12 11 9 10 13 9 6 3 10 12 11 6 13 21 26 54 67 74 78 84 85 95 102 96 101 101 99 93 97 99 100 101 102 100 98 95 91 84 83 81
8 7 15 17 7 18 13 10 8 4 7 15 19 17 40 22 15 15 29 52 58 67 68 69 74 76 88 91 98 105 107 111 103 108 108 109 105 105 107 103 98 90 82 82
3 6 5 11 12 6 11 14 1 5 11 16 8 18 54 11 19 13 27 49 64 65 69 70 64 64 66 75 86 95 103 115 118 112 111 113 109 109 107 107 100 95 85 82
20 10 17 9 9 9 19 12 9 13 9 6 3 16 28 6 22 45 54 65 61 60 60 60 59 67 75 83 77 81 92 102 113 119 117 109 109 113 106 107 106 97 88 81
13 11 6 2 9 22 9 20 9 4 3 1 9 17 34 32 29 40 51 59 75 83 83 74 70 69 60 61 74 80 79 88 99 113 118 121 114 113 110 105 107 98 88 80
10 6 2 6 7 3 12 11 5 4 2 6 12 13 28 2 1 11 18 38 54 52 55 54 50 52 55 58 64 69 81 91 88 96 110 116 117 113 109 107 102 96 88 81
11 9 5 10 14 20 9 17 5 7 9 8 6 13 29 25 19 20 31 39 47 62 64 52 53 41 68 79 79 68 73 84 93 90 97 110 116 113 111 107 98 94 88 81
5 10 7 11 7 7 16 20 14 9 8 8 4 25 14 12 16 3 24 65 67 77 74 58 76 92 83 78 86 77 71 74 83 91 93 104 110 114 114 106 98 94 87 83
17 8 6 10 11 1 14 15 21 24 4 21 8 21 17 14 13 28 47 66 81 92 95 103 102 82 90 95 106 99 87 75 76 83 94 98 105 112 111 107 100 95 87 82
46 7 15 20 10 8 18 17 29 30 17 42 32 62 80 43 29 35 49 65 80 92 95 114 99 92 100 116 111 97 93 82 71 75 85 98 101 107 107 103 105 96 88 83
14 12 6 1 7 6 8 26 26 40 52 16 34 21 63 21 18 47 70 80 78 83 87 95 112 115 120 115 106 98 89 74 69 70 81 93 103 98 103 103 103 100 91 82
4 7 16 21 14 12 11 24 25 31 25 31 27 51 80 84 54 58 62 57 62 77 90 88 103 104 112 112 117 107 95 90 77 71 77 85 95 103 100 102 99 96 86 80
13 11 7 9 5 7 16 46 39 24 22 31 34 65 52 46 36 58 52 55 69 83 84 90 96 101 100 105 109 101 90 87 78 72 70 78 83 95 94 93 90 86 80 78
15 11 5 5 5 6 12 8 24 46 34 48 53 54 47 49 82 49 58 71 72 77 78 87 93 101 103 102 101 93 86 82 73 67 67 68 77 81 86 81 85 84 82 81
7 11 7 11 9 17 27 17 19 19 36 47 48 57 65 53 67 35 23 36 64 69 82 90 94 97 97 101 93 90 85 80 70 65 59 58 67 75 75 79 79 81 81 80
6 6 8 6 10 18 9 6 17 14 35 29 53 46 30 29 21 14 32 84 88 97 89 95 96 96 100 92 85 86 74 73 73 62 53 46 56 69 69 75 75 80 77 73
9 2 10 7 7 20 22 14 26 12 11 12 41 42 38 13 26 67 73 86 89 83 96 100 105 101 94 81 80 88 71 68 70 57 48 52 51 58 60 64 66 71 76 78
23 20 10 8 5 25 42 14 20 16 23 24 20 21 24 51 73 85 98 99 86 89 108 109 112 107 97 94 80 80 83 76 74 59 51 58 59 58 59 66 69 75 74 68
8 16 14 26 20 6 52 21 70 50 48 46 48 47 54 74 87 87 88 98 84 100 109 108 115 110 103 92 81 73 72 75 71 61 64 63 65 58 61 71 73 75 69 68
10 17 10 6 32 26 33 51 60 50 60 68 55 67 80 93 96 107 98 85 93 103 102 104 111 111 111 99 92 72 62 70 65 64 62 60 68 60 59 65 66 69 71 68
14 24 16 26 35 14 54 71 84 79 75 81 86 92 98 95 103 93 96 102 108 94 98 98 108 114 111 101 94 79 55 70 66 69 66 62 68 68 65 66 63 60 58 60
22 19 15 20 54 35 66 43 49 68 77 84 89 91 87 84 92 98 114 112 97 89 100 112 113 113 113 101 89 81 54 71 73 77 69 73 70 73 70 73 68 53 45 48
Wind_Direction_850mb
174 188 204 181 196 129 137 166 201 225 255 250 232 242 244 264 259 264 266 262 265 258 252 252 248 248 246 245 242 241 240 238 236 236 235 236 237 237 236 235 234 234 235 235
147 224 182 159 177 168 153 207 212 252 323 223 295 275 232 263 256 248 256 261 262 263 265 258 251 245 246 246 244 242 242 242 239 237 239 240 241 241 241 241 239 237 236 236
187 188 142 133 150 174 197 230 165 311 332 265 313 285 228 237 248 244 250 258 262 262 263 262 257 253 250 245 244 244 243 245 243 241 240 239 242 243 242 240 240 238 238 239
210 167 148 153 198 156 236 182 196 256 320 259 1 283 242 231 269 234 243 251 258 259 259 261 261 258 252 250 251 251 248 246 245 242 240 240 240 242 243 242 243 241 240 240
189 158 154 201 184 154 222 149 167 178 210 347 237 280 281 186 264 272 243 254 257 259 264 267 267 262 258 255 252 251 249 250 246 243 241 242 241 245 247 248 247 245 243 242
157 149 156 174 133 169 150 104 62 141 166 243 220 206 269 245 237 241 240 247 257 269 273 276 278 275 269 265 260 254 250 248 248 246 243 241 242 242 242 244 246 246 244 243
112 139 159 150 115 132 197 132 122 225 210 242 209 184 253 295 282 236 268 278 277 277 276 278 277 277 277 270 266 261 254 248 246 245 245 243 242 243 244 246 245 246 245 243
165 199 168 163 170 171 191 189 174 202 205 271 46 226 250 220 251 256 261 269 274 279 291 296 278 284 290 284 276 269 261 254 248 247 245 247 245 243 243 245 246 245 245 245
150 231 43 151 154 163 183 215 176 355 298 327 220 281 290 264 250 257 262 268 278 284 298 285 298 310 309 296 284 276 268 261 255 251 247 247 247 244 241 243 246 244 244 245
180 122 135 170 98 105 148 155 115 202 221 241 255 255 248 160 65 304 273 264 285 302 309 303 302 324 335 324 302 289 276 266 263 256 249 248 246 245 242 240 243 243 242 243
129 93 121 120 202 184 171 213 186 138 181 207 275 253 241 249 225 239 267 284 315 318 327 306 311 327 332 333 333 313 286 275 264 258 252 248 247 245 241 240 242 241 240 240
195 114 152 183 314 232 210 216 173 168 221 240 260 270 200 251 240 165 332 325 320 320 319 320 314 316 324 335 334 324 306 286 272 263 258 252 248 246 242 240 239 238 237 238
158 170 73 3 346 306 210 199 212 239 346 242 156 260 102 81 97 352 334 326 324 323 319 316 317 319 319 321 326 320 318 300 279 267 260 253 249 245 242 242 238 236 236 235
162 146 187 206 185 151 199 194 204 198 211 241 226 251 274 259 296 334 338 322 310 304 305 304 305 308 313 312 316 323 317 307 290 267 261 255 249 245 243 244 239 235 234 232
148 186 137 97 151 135 179 203 202 210 228 223 243 264 268 278 326 306 293 287 287 289 292 294 300 301 303 305 311 319 319 308 295 276 261 255 251 244 242 242 238 235 233 230
129 144 168 210 215 196 225 224 213 226 238 258 279 269 260 286 284 273 274 273 276 284 290 293 296 297 300 302 303 306 312 311 298 280 266 256 251 244 238 237 235 235 232 225
139 133 114 225 335 105 297 233 217 208 201 211 228 244 269 280 272 268 289 307 300 293 297 299 299 298 296 295 298 304 304 307 294 281 271 258 253 250 242 238 235 234 230 224
136 111 93 166 33 217 233 351 202 212 219 218 238 258 265 265 271 301 307 294 291 297 308 312 312 311 306 302 301 303 302 301 292 276 273 260 249 246 244 238 235 228 224 222
124 133 120 154 199 295 284 195 189 174 242 223 230 248 257 274 297 308 309 327 316 310 307 312 317 319 315 303 303 301 295 292 288 275 268 268 249 240 238 235 228 227 223 217
121 65 116 139 158 215 251 226 165 105 265 203 212 240 260 273 282 272 300 319 320 322 322 318 316 317 321 315 302 299 292 284 279 276 266 260 250 239 229 228 223 220 217 217
162 192 169 192 221 278 220 177 154 165 233 163 194 219 243 221 251 289 305 314 318 319 323 322 320 314 319 322 308 294 292 281 286 268 262 252 237 234 228 220 216 211 206 205
176 173 190 170 194 269 175 173 181 214 155 189 212 220 263 289 297 304 308 311 316 319 321 321 321 314 313 315 311 297 284 285 279 255 244 240 233 227 220 211 204 201 200 203
221 185 181 189 214 215 188 209 215 238 249 248 259 263 289 298 297 299 299 305 308 316 315 317 319 312 307 310 315 296 288 279 267 240 237 228 225 219 217 213 205 202 202 204
238 188 226 102 245 233 233 231 238 239 248 252 259 283 291 291 292 297 297 298 306 311 310 315 314 309 304 305 307 302 281 276 257 236 234 224 223 209 202 206 205 202 196 201
187 159 211 251 269 313 254 239 248 253 260 274 279 280 280 283 287 290 294 298 304 302 306 311 310 305 301 302 300 299 266 263 248 231 225 216 215 211 201 202 205 205 205 200
182 201 195 236 251 228 262 270 268 266 270 275 275 278 280 282 283 287 290 291 295 297 303 307 305 301 298 297 296 290 256 248 241 228 219 213 207 209 200 197 189 190 198 192